STARLINK-32248 (61219 NORAD) Tracking and Keplerian Element Data

This shows tracking and keplerian element data for the satellite.

Feedback or suggestion? Click here.




ElementValue
Catalog61219
NameSTARLINK-32248
Epoch Orbit477
Epoch Day286.91668981
Epoch Year2024
RAAN186.5727
Inclination53.1594
Eccentricity0.0001441
Argument of Perigee81.2568
Mean Anonmoly60.5405
Mean Motion15.49341513
Decay Rate-0.00055626
L11 61219U 24171V 24286.91668981 -.00055626 00000+0 -99804-3 0 9992
L22 61219 53.1594 186.5727 0001441 81.2568 60.5405 15.49341513 4778



Live tracking and technical data element details for STARLINK-32248 (NORAD 61219). STARLINK-32248 can be tracked NOW for your location showing map with azimuth and elevation plus other details from your city location.







IsCatalogInMostPopularTable: catalog: 61219, numindb: 22
Update: records affected: 1



GetName: 61219 STARLINK-32248

Hit Count: updated at: Wed, 04 Dec 2024 09:34:36 GMT